User: anonymous
Location: Hopkins Observatory
(42.6965°N, 73.1843°W)
Time: 06:28:05
(UTC-04:00)
Language:

UOSAT-12 - Orbit

View from above orbital plane
View from above orbital plane
View from above satellite
View from above satellite

Ground track
Ground track

The orbit data is extracted from the following two-line orbital elements,

1 25693U 99021A   14113.08341641  .00000846  00000-0  12902-3 0  4577
2 25693 064.5577 071.8697 0044890 295.7773 138.8028 14.79915290809761
Epoch (UTC): 23 April 2014 02:00:07
Eccentricity: 0.0044890
inclination: 64.5577°
perigee height: 598 km
apogee height: 661 km
right ascension of ascending node: 71.8697°
argument of perigee: 295.7773°
revolutions per day: 14.79915290
mean anomaly at epoch: 138.8028°
orbit number at epoch: 80976

The dashed part of the orbit path shows where the satellite is in the earth's shadow,  

DLR